START_TIME,STEP,MOV.,M15,t_acc.,M20,t_acc.
1979-08-06 06:00:42.440 ,0,1,0.,24.0,0.,24.0
1979-08-06 06:01:06.440 ,4,1,0.,24.0,0.,24.0
1979-08-06 06:01:30.440 ,7,1,0.,24.0,0.,24.0
1979-08-06 06:01:54.440 ,3,1,0.,24.0,0.,24.0
1979-08-06 06:02:18.440 ,0,1,0.,24.0,0.,24.0
1979-08-06 06:02:42.440 ,4,1,0.,24.0,0.,24.0
1979-08-06 06:03:06.440 ,7,1,0.,24.0,0.,24.0
1979-08-06 06:03:30.440 ,3,1,0.,24.0,0.,24.0
1979-08-06 06:03:54.440 ,0,1,0.,24.0,0.,24.0
1979-08-06 06:04:18.440 ,4,1,0.,24.0,0.,24.0
1979-08-06 06:04:42.440 ,7,1,0.,24.0,0.,24.0
1979-08-06 06:05:06.440 ,3,1,0.,24.0,0.,24.0
1979-08-06 06:05:30.440 ,0,1,0.,24.0,0.,24.0
1979-08-06 06:05:54.440 ,0,0,0.,24.0,0.,24.0
1979-08-06 06:06:18.440 ,0,0,0.,24.0,0.,24.0
1979-08-06 06:06:42.440 ,5,1,0.,24.0,0.,24.0
1979-08-06 06:07:06.440 ,5,0,0.,24.0,0.,24.0
1979-08-06 06:07:30.440 ,4,1,0.,24.0,0.,24.0
1979-08-06 06:07:54.440 ,4,0,0.,24.0,0.,24.0
1979-08-06 06:08:18.440 ,3,1,0.,24.0,0.,24.0
1979-08-06 06:08:42.440 ,3,0,0.,24.0,0.,24.0
1979-08-06 06:09:06.440 ,2,1,0.,24.0,0.,24.0
1979-08-06 06:09:30.440 ,2,0,0.,24.0,0.,24.0
1979-08-06 06:09:54.440 ,1,1,0.,24.0,0.,24.0
1979-08-06 06:10:18.440 ,1,0,0.,24.0,0.,24.0
1979-08-06 06:10:42.440 ,0,1,0.,24.0,0.,24.0
1979-08-06 06:11:06.440 ,0,0,0.,24.0,0.,24.0
1979-08-06 06:11:30.440 ,0,1,0.,24.0,0.,24.0
1979-08-06 06:11:54.440 ,0,0,0.,24.0,0.,24.0
1979-08-06 06:12:18.440 ,1,1,0.,24.0,0.,24.0
1979-08-06 06:12:42.440 ,1,0,0.,24.0,0.,24.0
1979-08-06 06:13:06.440 ,2,1,0.,24.0,0.,24.0
1979-08-06 06:13:30.440 ,2,0,0.,24.0,0.,24.0
1979-08-06 06:13:54.440 ,3,1,0.,24.0,0.,24.0
1979-08-06 06:14:18.440 ,3,0,0.,24.0,0.,24.0
1979-08-06 06:14:42.440 ,4,1,0.,24.0,0.,24.0
1979-08-06 06:15:06.440 ,4,0,0.,24.0,0.,24.0
1979-08-06 06:15:30.440 ,5,1,0.,24.0,0.,24.0
1979-08-06 06:15:54.440 ,5,0,0.,24.0,0.,24.0
1979-08-06 06:16:18.440 ,6,1,0.,24.0,0.,24.0
1979-08-06 06:16:42.440 ,6,0,0.,24.0,0.,24.0
1979-08-06 06:17:06.440 ,7,1,0.,24.0,0.,24.0
1979-08-06 06:17:30.440 ,7,0,0.,24.0,0.,24.0
1979-08-06 06:17:54.440 ,7,1,0.,24.0,0.,24.0
1979-08-06 06:18:18.440 ,7,0,0.,24.0,0.,24.0
1979-08-06 06:18:42.440 ,6,1,0.,24.0,0.,24.0
1979-08-06 06:19:06.440 ,6,0,0.,24.0,0.,24.0
1979-08-06 06:19:30.440 ,5,1,0.,24.0,0.,24.0
1979-08-06 06:19:54.440 ,5,0,0.,24.0,0.,24.0
1979-08-06 06:20:18.440 ,4,1,0.,24.0,0.,24.0
1979-08-06 06:20:42.440 ,4,0,0.,24.0,0.,24.0
1979-08-06 06:21:06.440 ,3,1,0.,24.0,0.,24.0
1979-08-06 06:21:30.440 ,3,0,0.,24.0,0.,24.0
1979-08-06 06:21:54.440 ,2,1,0.,24.0,0.,24.0
1979-08-06 06:22:18.440 ,2,0,0.,24.0,0.,24.0
1979-08-06 06:22:42.440 ,1,1,0.,24.0,0.,24.0
1979-08-06 06:23:06.440 ,1,0,0.,24.0,0.,24.0
1979-08-06 06:23:30.440 ,0,1,0.,24.0,0.,24.0
1979-08-06 06:23:54.440 ,0,0,0.,24.0,0.,24.0
1979-08-06 06:24:18.440 ,0,1,0.,24.0,0.,24.0
1979-08-06 06:24:42.440 ,0,0,0.,24.0,0.,24.0
1979-08-06 06:25:06.440 ,1,1,0.,24.0,0.,24.0
1979-08-06 06:25:30.440 ,1,0,0.,24.0,0.,24.0
1979-08-06 06:25:54.440 ,2,1,0.,24.0,0.,24.0
1979-08-06 06:26:18.440 ,2,0,0.,24.0,0.,24.0
1979-08-06 06:26:42.440 ,3,1,0.,24.0,0.,24.0
1979-08-06 06:27:06.440 ,3,0,0.,24.0,0.,24.0
1979-08-06 06:27:30.440 ,4,1,0.,24.0,0.,24.0
1979-08-06 06:27:54.440 ,4,0,0.,24.0,0.,24.0
1979-08-06 06:28:18.440 ,5,1,0.,24.0,0.,24.0
1979-08-06 06:28:42.440 ,5,0,0.,24.0,0.,24.0
1979-08-06 06:29:06.440 ,6,1,0.,24.0,0.,24.0
1979-08-06 06:29:30.440 ,6,0,0.,24.0,0.,24.0
1979-08-06 06:29:54.440 ,7,1,0.,24.0,0.,24.0
1979-08-06 06:30:18.440 ,7,0,0.,24.0,0.,24.0
1979-08-06 06:30:42.440 ,7,1,0.,24.0,0.,24.0
1979-08-06 06:31:06.440 ,7,0,0.,24.0,0.,24.0
1979-08-06 06:31:30.440 ,6,1,0.,24.0,0.,24.0
1979-08-06 06:31:54.440 ,6,0,0.,24.0,0.,24.0
1979-08-06 06:32:18.440 ,5,1,0.,24.0,0.,24.0
1979-08-06 06:32:42.440 ,5,0,0.,24.0,0.,24.0
1979-08-06 06:33:06.440 ,4,1,0.,24.0,0.,24.0
1979-08-06 06:33:30.440 ,4,0,0.,24.0,0.,24.0
1979-08-06 06:33:54.440 ,3,1,0.,24.0,0.,24.0
1979-08-06 06:34:18.440 ,3,0,0.,24.0,0.,24.0
1979-08-06 06:34:42.440 ,2,1,0.,24.0,0.,24.0
1979-08-06 06:35:06.440 ,2,0,0.,24.0,0.,24.0
1979-08-06 06:35:30.440 ,1,1,0.,24.0,0.,24.0
1979-08-06 06:35:54.440 ,1,0,0.,24.0,0.,24.0
1979-08-06 06:36:18.440 ,0,1,0.,24.0,0.,24.0
1979-08-06 06:36:42.440 ,0,0,0.,24.0,0.,24.0
1979-08-06 06:37:06.440 ,0,1,0.,24.0,0.,24.0
1979-08-06 06:37:30.440 ,0,0,0.,24.0,0.,24.0
1979-08-06 06:37:54.440 ,1,1,0.,24.0,0.,24.0
1979-08-06 06:38:18.440 ,1,0,0.,24.0,0.,24.0
1979-08-06 06:38:42.440 ,2,1,0.,24.0,0.,24.0
1979-08-06 06:39:06.440 ,2,0,0.,24.0,0.,24.0
1979-08-06 06:39:30.440 ,3,1,0.,24.0,0.,24.0
1979-08-06 06:39:54.440 ,3,0,0.,24.0,0.,24.0
1979-08-06 06:40:18.440 ,4,1,0.,24.0,0.,24.0
1979-08-06 06:40:42.440 ,4,0,0.,24.0,0.,24.0
1979-08-06 06:41:06.440 ,5,1,0.,24.0,0.,24.0
1979-08-06 06:41:30.440 ,5,0,0.,24.0,0.,24.0
1979-08-06 06:41:54.440 ,6,1,0.,24.0,0.,24.0
1979-08-06 06:42:18.440 ,6,0,0.,24.0,0.,24.0
1979-08-06 06:42:42.440 ,7,0,0.,24.0,0.,24.0
1979-08-06 06:43:06.440 ,7,0,0.,24.0,0.,24.0
1979-08-06 06:43:30.440 ,3,1,0.,24.0,0.,24.0
1979-08-06 06:43:54.440 ,0,1,0.,24.0,0.,24.0
1979-08-06 06:44:18.440 ,4,1,0.,24.0,0.,24.0
1979-08-06 06:44:42.440 ,7,1,0.,24.0,0.,24.0
1979-08-06 06:45:06.440 ,3,1,0.,24.0,0.,24.0
1979-08-06 06:45:30.440 ,0,1,0.,24.0,0.,24.0
1979-08-06 06:45:54.440 ,4,1,0.,24.0,0.,24.0
1979-08-06 06:46:18.440 ,7,1,0.,24.0,0.,24.0
1979-08-06 06:46:42.440 ,3,1,0.,24.0,0.,24.0
1979-08-06 06:47:06.440 ,0,1,0.,24.0,0.,24.0
1979-08-06 06:47:30.440 ,4,1,0.,24.0,0.,24.0
1979-08-06 06:47:54.440 ,7,1,0.,24.0,0.,24.0
1979-08-06 06:48:18.440 ,3,1,0.,24.0,0.,24.0
1979-08-06 06:48:42.440 ,0,1,0.,24.0,0.,24.0
1979-08-06 06:49:06.440 ,4,1,0.,24.0,0.,24.0
1979-08-06 06:49:30.440 ,7,1,0.,24.0,0.,24.0
1979-08-06 06:49:54.440 ,3,1,0.,24.0,0.,24.0
1979-08-06 06:50:18.440 ,0,1,0.,24.0,0.,24.0
1979-08-06 06:50:42.440 ,4,1,0.,24.0,0.,24.0
1979-08-06 06:51:06.440 ,7,1,0.,24.0,0.,24.0
1979-08-06 06:51:30.440 ,3,1,0.,24.0,0.,24.0
1979-08-06 06:51:54.440 ,0,1,0.,24.0,0.,24.0
1979-08-06 06:52:18.440 ,4,1,0.,24.0,0.,24.0
1979-08-06 06:52:42.440 ,7,1,0.,24.0,0.,24.0
1979-08-06 06:53:06.440 ,3,1,0.,24.0,0.,24.0
1979-08-06 06:53:30.440 ,0,1,0.,24.0,0.,24.0
1979-08-06 06:53:54.440 ,0,0,0.,24.0,0.,24.0
1979-08-06 06:54:18.440 ,0,0,0.,24.0,0.,24.0
1979-08-06 06:54:42.440 ,5,1,0.,24.0,0.,24.0
1979-08-06 06:55:06.440 ,5,0,0.,24.0,0.,24.0
1979-08-06 06:55:30.440 ,4,1,0.,24.0,0.,24.0
1979-08-06 06:55:54.440 ,4,0,0.,24.0,0.,24.0
1979-08-06 06:56:18.440 ,3,1,0.,24.0,0.,24.0
1979-08-06 06:56:42.440 ,3,0,0.,24.0,0.,24.0
1979-08-06 06:57:06.440 ,2,1,0.,24.0,0.,24.0
1979-08-06 06:57:30.440 ,2,0,0.,24.0,0.,24.0
1979-08-06 06:57:54.440 ,1,1,0.,24.0,0.,24.0
1979-08-06 06:58:18.440 ,1,0,0.,24.0,0.,24.0
1979-08-06 06:58:42.440 ,0,1,0.,24.0,0.,24.0
1979-08-06 06:59:06.440 ,0,0,0.,24.0,0.,24.0
1979-08-06 06:59:30.440 ,0,1,0.,24.0,0.,24.0
1979-08-06 06:59:54.440 ,0,0,0.,24.0,0.,24.0
1979-08-06 07:00:18.440 ,1,1,0.,24.0,0.,24.0
1979-08-06 07:00:42.440 ,1,0,0.,24.0,0.,24.0
1979-08-06 07:01:06.440 ,2,1,0.,24.0,0.,24.0
1979-08-06 07:01:30.440 ,2,0,0.,24.0,0.,24.0
1979-08-06 07:01:54.440 ,3,1,0.,24.0,0.,24.0
1979-08-06 07:02:18.440 ,3,0,0.,24.0,0.,24.0
1979-08-06 07:02:42.440 ,4,1,0.,24.0,0.,24.0
1979-08-06 07:03:06.440 ,4,0,0.,24.0,0.,24.0
1979-08-06 07:03:30.440 ,5,1,0.,24.0,0.,24.0
1979-08-06 07:03:54.440 ,5,0,0.,24.0,0.,24.0
1979-08-06 07:04:18.440 ,6,1,0.,24.0,0.,24.0
1979-08-06 07:04:42.440 ,6,0,0.,24.0,0.,24.0
1979-08-06 07:05:06.440 ,7,1,0.,24.0,0.,24.0
1979-08-06 07:05:30.440 ,7,0,0.,24.0,0.,24.0
1979-08-06 07:05:54.440 ,7,1,0.,24.0,0.,24.0
1979-08-06 07:06:18.440 ,7,0,0.,24.0,0.,24.0
1979-08-06 07:06:42.440 ,6,1,0.,24.0,0.,24.0
1979-08-06 07:07:06.440 ,6,0,0.,24.0,0.,24.0
1979-08-06 07:07:30.440 ,5,1,0.,24.0,0.,24.0
1979-08-06 07:07:54.440 ,5,0,0.,24.0,0.,24.0
1979-08-06 07:08:18.440 ,4,1,0.,24.0,0.,24.0
1979-08-06 07:08:42.440 ,4,0,0.,24.0,0.,24.0
1979-08-06 07:09:06.440 ,3,1,0.,24.0,0.,24.0
1979-08-06 07:09:30.440 ,3,0,0.,24.0,0.,24.0
1979-08-06 07:09:54.440 ,2,1,0.,24.0,0.,24.0
1979-08-06 07:10:18.440 ,2,0,0.,24.0,0.,24.0
1979-08-06 07:10:42.440 ,1,1,0.,24.0,0.,24.0
1979-08-06 07:11:06.440 ,1,0,0.,24.0,0.,24.0
1979-08-06 07:11:30.440 ,0,1,0.,24.0,0.,24.0
1979-08-06 07:11:54.440 ,0,0,0.,24.0,0.,24.0
1979-08-06 07:12:18.440 ,0,1,0.,24.0,0.,24.0
1979-08-06 07:12:42.440 ,0,0,0.,24.0,0.,24.0
1979-08-06 07:13:06.440 ,1,1,0.,24.0,0.,24.0
1979-08-06 07:13:30.440 ,1,0,0.,24.0,0.,24.0
1979-08-06 07:13:54.440 ,2,1,0.,24.0,0.,24.0
1979-08-06 07:14:18.440 ,2,0,0.,24.0,0.,24.0
1979-08-06 07:14:42.440 ,3,1,0.,24.0,0.,24.0
1979-08-06 07:15:06.440 ,3,0,0.,24.0,0.,24.0
1979-08-06 07:15:30.440 ,4,1,0.,24.0,0.,24.0
1979-08-06 07:15:54.440 ,4,0,0.,24.0,0.,24.0
1979-08-06 07:16:18.440 ,5,1,0.,24.0,0.,24.0
1979-08-06 07:16:42.440 ,5,0,0.,24.0,0.,24.0
1979-08-06 07:17:06.430 ,6,1,0.,24.0,0.,24.0
1979-08-06 07:17:30.440 ,6,0,0.,24.0,0.,24.0
1979-08-06 07:17:54.440 ,7,1,0.,24.0,0.,24.0
1979-08-06 07:18:18.440 ,7,0,0.,24.0,0.,24.0
1979-08-06 07:18:42.440 ,7,1,0.,24.0,0.,24.0
1979-08-06 07:19:06.440 ,7,0,0.,24.0,0.,24.0
1979-08-06 07:19:30.440 ,6,1,0.,24.0,0.,24.0
1979-08-06 07:19:54.440 ,6,0,0.,24.0,0.,24.0
1979-08-06 07:20:18.440 ,5,1,0.,24.0,0.,24.0
1979-08-06 07:20:42.440 ,5,0,0.,24.0,0.,24.0
1979-08-06 07:21:06.440 ,4,1,0.,24.0,0.,24.0
1979-08-06 07:21:30.440 ,4,0,0.,24.0,0.,24.0
1979-08-06 07:21:54.440 ,3,1,0.,24.0,0.,24.0
1979-08-06 07:22:18.440 ,3,0,0.,24.0,0.,24.0
1979-08-06 07:22:42.440 ,2,1,0.,24.0,0.,24.0
1979-08-06 07:23:06.440 ,2,0,0.,24.0,0.,24.0
1979-08-06 07:23:30.440 ,1,1,0.,24.0,0.,24.0
1979-08-06 07:23:54.440 ,1,0,0.,24.0,0.,24.0
1979-08-06 07:24:18.440 ,0,1,0.,24.0,0.,24.0
1979-08-06 07:24:42.440 ,0,0,0.,24.0,0.,24.0
1979-08-06 07:25:06.440 ,0,1,0.,24.0,0.,24.0
1979-08-06 07:25:30.440 ,0,0,0.,24.0,0.,24.0
1979-08-06 07:25:54.440 ,1,1,0.,24.0,0.,24.0
1979-08-06 07:26:18.440 ,1,0,0.,24.0,0.,24.0
1979-08-06 07:26:42.440 ,2,1,0.,24.0,0.,24.0
1979-08-06 07:27:06.440 ,2,0,0.,24.0,0.,24.0
1979-08-06 07:27:30.440 ,3,1,0.,24.0,0.,24.0
1979-08-06 07:27:54.440 ,3,0,0.,24.0,0.,24.0
1979-08-06 07:28:18.440 ,4,1,0.,24.0,0.,24.0
1979-08-06 07:28:42.440 ,4,0,0.,24.0,0.,24.0
1979-08-06 07:29:06.440 ,5,1,0.,24.0,0.,24.0
1979-08-06 07:29:30.440 ,5,0,0.,24.0,0.,24.0
1979-08-06 07:29:54.440 ,6,1,0.,24.0,0.,24.0
1979-08-06 07:30:18.440 ,6,0,0.,24.0,0.,24.0
1979-08-06 07:30:42.440 ,7,0,0.,24.0,0.,24.0
1979-08-06 07:31:06.440 ,7,0,0.,24.0,0.,24.0
1979-08-06 07:31:30.440 ,3,1,0.,24.0,0.,24.0
1979-08-06 07:31:54.440 ,0,1,0.,24.0,0.,24.0
1979-08-06 07:32:18.440 ,4,1,0.,24.0,0.,24.0
1979-08-06 07:32:42.440 ,7,1,0.,24.0,0.,24.0
1979-08-06 07:33:06.440 ,3,1,0.,24.0,0.,24.0
1979-08-06 07:33:30.440 ,0,1,0.,24.0,0.,24.0
1979-08-06 07:33:54.440 ,4,1,0.,24.0,0.,24.0
1979-08-06 07:34:18.440 ,7,1,0.,24.0,0.,24.0
1979-08-06 07:34:42.430 ,3,1,0.,24.0,0.,24.0
1979-08-06 07:35:06.430 ,0,1,0.,24.0,0.,24.0
1979-08-06 07:35:30.430 ,4,1,0.,24.0,0.,24.0
1979-08-06 07:35:54.430 ,7,1,0.,24.0,0.,24.0
1979-08-06 07:36:18.430 ,3,1,0.,24.0,0.,24.0
1979-08-06 07:36:42.430 ,0,1,0.,24.0,0.,24.0
1979-08-06 07:37:06.430 ,4,1,0.,24.0,0.,24.0
1979-08-06 07:37:30.430 ,7,1,0.,24.0,0.,24.0
1979-08-06 07:37:54.430 ,3,1,0.,24.0,0.,24.0
1979-08-06 07:38:18.430 ,0,1,0.,24.0,0.,24.0
1979-08-06 07:38:42.430 ,4,1,0.,24.0,0.,24.0
1979-08-06 07:39:06.430 ,7,1,1.,24.0,0.,24.0
1979-08-06 07:39:30.430 ,3,1,0.,24.0,0.,24.0
1979-08-06 07:39:54.430 ,0,1,0.,24.0,0.,24.0
1979-08-06 07:40:18.430 ,4,1,0.,24.0,0.,24.0
1979-08-06 07:40:42.430 ,7,1,0.,24.0,0.,24.0
1979-08-06 07:41:06.430 ,3,1,0.,24.0,0.,24.0
1979-08-06 07:41:30.430 ,0,1,0.,24.0,0.,24.0
1979-08-06 07:41:54.430 ,0,0,0.,24.0,0.,24.0
1979-08-06 07:42:18.430 ,0,0,0.,24.0,0.,24.0
1979-08-06 07:42:42.430 ,5,1,0.,24.0,0.,24.0
1979-08-06 07:43:06.430 ,5,0,0.,24.0,0.,24.0
1979-08-06 07:43:30.430 ,4,1,0.,24.0,0.,24.0
1979-08-06 07:43:54.430 ,4,0,0.,24.0,0.,24.0
1979-08-06 07:44:18.430 ,3,1,0.,24.0,0.,24.0
1979-08-06 07:44:42.430 ,3,0,0.,24.0,0.,24.0
1979-08-06 07:45:06.430 ,2,1,0.,24.0,0.,24.0
1979-08-06 07:45:30.430 ,2,0,0.,24.0,0.,24.0
1979-08-06 07:45:54.430 ,1,1,0.,24.0,0.,24.0
1979-08-06 07:46:18.430 ,1,0,0.,24.0,0.,24.0
1979-08-06 07:46:42.430 ,0,1,0.,24.0,0.,24.0
1979-08-06 07:47:06.430 ,0,0,0.,24.0,0.,24.0
1979-08-06 07:47:30.430 ,0,1,0.,24.0,0.,24.0
1979-08-06 07:47:54.430 ,0,0,0.,24.0,0.,24.0
1979-08-06 07:48:18.430 ,1,1,0.,24.0,0.,24.0
1979-08-06 07:48:42.430 ,1,0,0.,24.0,0.,24.0
1979-08-06 07:49:06.430 ,2,1,0.,24.0,0.,24.0
1979-08-06 07:49:30.430 ,2,0,0.,24.0,0.,24.0
1979-08-06 07:49:54.430 ,3,1,0.,24.0,0.,24.0
1979-08-06 07:50:18.430 ,3,0,0.,24.0,0.,24.0
1979-08-06 07:50:42.430 ,4,1,0.,24.0,0.,24.0
1979-08-06 07:51:06.430 ,4,0,0.,24.0,0.,24.0
1979-08-06 07:51:30.430 ,5,1,0.,24.0,0.,24.0
1979-08-06 07:51:54.430 ,5,0,0.,24.0,0.,24.0
1979-08-06 07:52:18.430 ,6,1,0.,24.0,0.,24.0
1979-08-06 07:52:42.430 ,6,0,0.,24.0,0.,24.0
1979-08-06 07:53:06.430 ,7,1,0.,24.0,0.,24.0
1979-08-06 07:53:30.430 ,7,0,0.,24.0,0.,24.0
1979-08-06 07:53:54.430 ,7,1,0.,24.0,0.,24.0
1979-08-06 07:54:18.430 ,7,0,0.,24.0,0.,24.0
1979-08-06 07:54:42.430 ,6,1,0.,24.0,0.,24.0
1979-08-06 07:55:06.430 ,6,0,0.,24.0,0.,24.0
1979-08-06 07:55:30.430 ,5,1,0.,24.0,0.,24.0
1979-08-06 07:55:54.430 ,5,0,0.,24.0,0.,24.0
1979-08-06 07:56:18.430 ,4,1,0.,24.0,0.,24.0
1979-08-06 07:56:42.430 ,4,0,0.,24.0,0.,24.0
1979-08-06 07:57:06.430 ,3,1,0.,24.0,0.,24.0
1979-08-06 07:57:30.430 ,3,0,0.,24.0,0.,24.0
1979-08-06 07:57:54.430 ,2,1,0.,24.0,0.,24.0
1979-08-06 07:58:18.430 ,2,0,0.,24.0,0.,24.0
1979-08-06 07:58:42.430 ,1,1,0.,24.0,0.,24.0
1979-08-06 07:59:06.430 ,1,0,0.,24.0,0.,24.0
1979-08-06 07:59:30.430 ,0,1,0.,24.0,0.,24.0
1979-08-06 07:59:54.430 ,0,0,0.,24.0,0.,24.0
1979-08-06 08:00:18.430 ,0,1,0.,24.0,0.,24.0
1979-08-06 08:00:42.430 ,0,0,0.,24.0,0.,24.0
1979-08-06 08:01:06.430 ,1,1,0.,24.0,0.,24.0
1979-08-06 08:01:30.430 ,1,0,0.,24.0,0.,24.0
1979-08-06 08:01:54.430 ,2,1,0.,24.0,0.,24.0
1979-08-06 08:02:18.430 ,2,0,0.,24.0,0.,24.0
1979-08-06 08:02:42.430 ,3,1,0.,24.0,0.,24.0
1979-08-06 08:03:06.430 ,3,0,0.,24.0,0.,24.0
1979-08-06 08:03:30.430 ,4,1,0.,24.0,0.,24.0
1979-08-06 08:03:54.430 ,4,0,0.,24.0,0.,24.0
1979-08-06 08:04:18.430 ,5,1,0.,24.0,0.,24.0
1979-08-06 08:04:42.430 ,5,0,0.,24.0,0.,24.0
1979-08-06 08:05:06.430 ,6,1,0.,24.0,0.,24.0
1979-08-06 08:05:30.430 ,6,0,0.,24.0,0.,24.0
1979-08-06 08:05:54.430 ,7,1,0.,24.0,0.,24.0
1979-08-06 08:06:18.430 ,7,0,0.,24.0,0.,24.0
1979-08-06 08:06:42.430 ,7,1,0.,24.0,0.,24.0
1979-08-06 08:07:06.430 ,7,0,0.,24.0,0.,24.0
1979-08-06 08:07:30.430 ,6,1,0.,24.0,0.,24.0
1979-08-06 08:07:54.430 ,6,0,0.,24.0,0.,24.0
1979-08-06 08:08:18.430 ,5,1,0.,24.0,0.,24.0
1979-08-06 08:08:42.430 ,5,0,0.,24.0,0.,24.0
1979-08-06 08:09:06.430 ,4,1,0.,24.0,0.,24.0
1979-08-06 08:09:30.430 ,4,0,0.,24.0,0.,24.0
1979-08-06 08:09:54.430 ,3,1,0.,24.0,0.,24.0
1979-08-06 08:10:18.430 ,3,0,0.,24.0,0.,24.0
1979-08-06 08:10:42.430 ,2,1,0.,24.0,0.,24.0
1979-08-06 08:11:06.430 ,2,0,0.,24.0,0.,24.0
1979-08-06 08:11:30.430 ,1,1,0.,24.0,0.,24.0
1979-08-06 08:11:54.430 ,1,0,0.,24.0,0.,24.0
1979-08-06 08:12:18.430 ,0,1,0.,24.0,0.,24.0
1979-08-06 08:12:42.430 ,0,0,0.,24.0,0.,24.0
1979-08-06 08:13:06.430 ,0,1,0.,24.0,0.,24.0
1979-08-06 08:13:30.430 ,0,0,0.,24.0,0.,24.0
1979-08-06 08:13:54.430 ,1,1,0.,24.0,0.,24.0
1979-08-06 08:14:18.430 ,1,0,0.,24.0,0.,24.0
1979-08-06 08:14:42.430 ,2,1,0.,24.0,0.,24.0
1979-08-06 08:15:06.430 ,2,0,0.,24.0,0.,24.0
1979-08-06 08:15:30.430 ,3,1,0.,24.0,0.,24.0
1979-08-06 08:15:54.430 ,3,0,0.,24.0,0.,24.0
1979-08-06 08:16:18.430 ,4,1,0.,24.0,0.,24.0
1979-08-06 08:16:42.430 ,4,0,0.,24.0,0.,24.0
1979-08-06 08:17:06.430 ,5,1,0.,24.0,0.,24.0
1979-08-06 08:17:30.430 ,5,0,0.,24.0,0.,24.0
1979-08-06 08:17:54.430 ,6,1,0.,24.0,0.,24.0
1979-08-06 08:18:18.430 ,6,0,0.,24.0,0.,24.0
1979-08-06 08:18:42.430 ,7,0,0.,24.0,0.,24.0
1979-08-06 08:19:06.430 ,7,0,0.,24.0,0.,24.0
1979-08-06 08:19:30.430 ,3,1,0.,24.0,0.,24.0
1979-08-06 08:19:54.430 ,0,1,0.,24.0,0.,24.0
1979-08-06 08:20:18.430 ,4,1,0.,24.0,0.,24.0
1979-08-06 08:20:42.430 ,7,1,0.,24.0,0.,24.0
1979-08-06 08:21:06.430 ,3,1,0.,24.0,0.,24.0
1979-08-06 08:21:30.430 ,0,1,0.,24.0,0.,24.0
1979-08-06 08:21:54.430 ,4,1,0.,24.0,0.,24.0
1979-08-06 08:22:18.430 ,7,1,0.,24.0,0.,24.0
1979-08-06 08:22:42.430 ,3,1,0.,24.0,0.,24.0
1979-08-06 08:23:06.430 ,0,1,0.,24.0,0.,24.0
1979-08-06 08:23:30.430 ,4,1,0.,24.0,0.,24.0
1979-08-06 08:23:54.430 ,7,1,0.,24.0,0.,24.0
1979-08-06 08:24:18.430 ,3,1,0.,24.0,0.,24.0
1979-08-06 08:24:42.430 ,0,1,0.,24.0,0.,24.0
1979-08-06 08:25:06.430 ,4,1,0.,24.0,0.,24.0
1979-08-06 08:25:30.430 ,7,1,0.,24.0,0.,24.0
1979-08-06 08:25:54.430 ,3,1,0.,24.0,0.,24.0
1979-08-06 08:26:18.430 ,0,1,0.,24.0,0.,24.0
1979-08-06 08:26:42.430 ,4,1,0.,24.0,0.,24.0
1979-08-06 08:27:06.430 ,7,1,0.,24.0,0.,24.0
1979-08-06 08:27:30.430 ,3,1,0.,24.0,0.,24.0
1979-08-06 08:27:54.430 ,0,1,0.,24.0,0.,24.0
1979-08-06 08:28:18.430 ,4,1,0.,24.0,0.,24.0
1979-08-06 08:28:42.430 ,7,1,0.,24.0,0.,24.0
1979-08-06 08:29:06.430 ,3,1,0.,24.0,0.,24.0
1979-08-06 08:29:30.430 ,0,1,0.,24.0,0.,24.0
1979-08-06 08:29:54.430 ,0,0,0.,24.0,0.,24.0
1979-08-06 08:30:18.430 ,0,0,0.,24.0,0.,24.0
1979-08-06 08:30:42.430 ,5,1,0.,24.0,0.,24.0
1979-08-06 08:31:06.430 ,5,0,0.,24.0,0.,24.0
1979-08-06 08:31:30.430 ,4,1,0.,24.0,0.,24.0
1979-08-06 08:31:54.430 ,4,0,0.,24.0,0.,24.0
1979-08-06 08:32:18.430 ,3,1,0.,24.0,0.,24.0
1979-08-06 08:32:42.430 ,3,0,0.,24.0,0.,24.0
1979-08-06 08:33:06.430 ,2,1,0.,24.0,0.,24.0
1979-08-06 08:33:30.430 ,2,0,0.,24.0,0.,24.0
1979-08-06 08:33:54.430 ,1,1,0.,24.0,0.,24.0
1979-08-06 08:34:18.430 ,1,0,0.,24.0,0.,24.0
1979-08-06 08:34:42.430 ,0,1,1.,24.0,0.,24.0
1979-08-06 08:35:06.430 ,0,0,0.,24.0,0.,24.0
1979-08-06 08:35:30.430 ,0,1,0.,24.0,0.,24.0
1979-08-06 08:35:54.430 ,0,0,0.,24.0,0.,24.0
1979-08-06 08:36:18.430 ,1,1,0.,24.0,0.,24.0
1979-08-06 08:36:42.430 ,1,0,0.,24.0,0.,24.0
1979-08-06 08:37:06.430 ,2,1,0.,24.0,0.,24.0
1979-08-06 08:37:30.430 ,2,0,0.,24.0,0.,24.0
1979-08-06 08:37:54.430 ,3,1,0.,24.0,0.,24.0
1979-08-06 08:38:18.430 ,3,0,0.,24.0,0.,24.0
1979-08-06 08:38:42.430 ,4,1,0.,24.0,0.,24.0
1979-08-06 08:39:06.430 ,4,0,0.,24.0,0.,24.0
1979-08-06 08:39:30.430 ,5,1,0.,24.0,0.,24.0
1979-08-06 08:39:54.430 ,5,0,0.,24.0,0.,24.0
1979-08-06 08:40:18.430 ,6,1,0.,24.0,0.,24.0
1979-08-06 08:40:42.430 ,6,0,0.,24.0,0.,24.0
1979-08-06 08:41:06.430 ,7,1,0.,24.0,0.,24.0
1979-08-06 08:41:30.430 ,7,0,0.,24.0,0.,24.0
1979-08-06 08:41:54.430 ,7,1,0.,24.0,0.,24.0
1979-08-06 08:42:18.430 ,7,0,0.,24.0,0.,24.0
1979-08-06 08:42:42.430 ,6,1,0.,24.0,0.,24.0
1979-08-06 08:43:06.430 ,6,0,0.,24.0,0.,24.0
1979-08-06 08:43:30.430 ,5,1,0.,24.0,0.,24.0
1979-08-06 08:43:54.430 ,5,0,0.,24.0,0.,24.0
1979-08-06 08:44:18.430 ,4,1,0.,24.0,0.,24.0
1979-08-06 08:44:42.430 ,4,0,0.,24.0,0.,24.0
1979-08-06 08:45:06.430 ,3,1,0.,24.0,0.,24.0
1979-08-06 08:45:30.430 ,3,0,0.,24.0,0.,24.0
1979-08-06 08:45:54.430 ,2,1,0.,24.0,0.,24.0
1979-08-06 08:46:18.430 ,2,0,0.,24.0,0.,24.0
1979-08-06 08:46:42.430 ,1,1,0.,24.0,0.,24.0
1979-08-06 08:47:06.430 ,1,0,0.,24.0,0.,24.0
1979-08-06 08:47:30.430 ,0,1,0.,24.0,0.,24.0
1979-08-06 08:47:54.430 ,0,0,0.,24.0,0.,24.0
1979-08-06 08:48:18.430 ,0,1,0.,24.0,0.,24.0
1979-08-06 08:48:42.430 ,0,0,0.,24.0,0.,24.0
1979-08-06 08:49:06.430 ,1,1,0.,24.0,0.,24.0
1979-08-06 08:49:30.430 ,1,0,0.,24.0,0.,24.0
1979-08-06 08:49:54.430 ,2,1,0.,24.0,0.,24.0
1979-08-06 08:50:18.430 ,2,0,0.,24.0,0.,24.0
1979-08-06 08:50:42.430 ,3,1,0.,24.0,0.,24.0
1979-08-06 08:51:06.430 ,3,0,0.,24.0,0.,24.0
1979-08-06 08:51:30.430 ,4,1,0.,24.0,0.,24.0
1979-08-06 08:51:54.430 ,4,0,0.,24.0,0.,24.0
1979-08-06 08:52:18.430 ,5,1,0.,24.0,0.,24.0
1979-08-06 08:52:42.430 ,5,0,0.,24.0,0.,24.0
1979-08-06 08:53:06.430 ,6,1,0.,24.0,0.,24.0
1979-08-06 08:53:30.430 ,6,0,0.,24.0,0.,24.0
1979-08-06 08:53:54.430 ,7,1,0.,24.0,0.,24.0
1979-08-06 08:54:18.430 ,7,0,0.,24.0,0.,24.0
1979-08-06 08:54:42.430 ,7,1,0.,24.0,0.,24.0
1979-08-06 08:55:06.430 ,7,0,0.,24.0,0.,24.0
1979-08-06 08:55:30.430 ,6,1,0.,24.0,0.,24.0
1979-08-06 08:55:54.430 ,6,0,0.,24.0,0.,24.0
1979-08-06 08:56:18.430 ,5,1,0.,24.0,0.,24.0
1979-08-06 08:56:42.430 ,5,0,0.,24.0,0.,24.0
1979-08-06 08:57:06.430 ,4,1,0.,24.0,0.,24.0
1979-08-06 08:57:30.430 ,4,0,0.,24.0,0.,24.0
1979-08-06 08:57:54.430 ,3,1,0.,24.0,0.,24.0
1979-08-06 08:58:18.430 ,3,0,0.,24.0,0.,24.0
1979-08-06 08:58:42.430 ,2,1,0.,24.0,0.,24.0
1979-08-06 08:59:06.430 ,2,0,0.,24.0,0.,24.0
1979-08-06 08:59:30.430 ,1,1,0.,24.0,0.,24.0
1979-08-06 08:59:54.430 ,1,0,0.,24.0,0.,24.0
1979-08-06 09:00:18.430 ,0,1,0.,24.0,0.,24.0
